TimeAKST,TemperatureF,Dew PointF,Humidity,Sea Level PressureIn,VisibilityMPH,Wind Direction,Wind SpeedMPH,Gust SpeedMPH,PrecipitationIn,Events,Conditions,WindDirDegrees,DateUTC
12:53 AM,-27.0,-34.1,69,30.18,3.0,NE,18.4,-,N/A,Snow,Blowing Snow,50,2013-02-21 09:53:00
1:16 AM,-27.4,-34.6,69,30.17,2.5,NE,20.7,-,N/A,Snow,Blowing Snow,50,2013-02-21 10:16:00
1:51 AM,-27.4,-34.6,69,30.17,-9999.0,ENE,20.7,-,N/A,Snow,Blowing Snow,60,2013-02-21 10:51:00
1:53 AM,-27.9,-35.0,69,30.18,3.0,ENE,19.6,-,N/A,Snow,Blowing Snow,60,2013-02-21 10:53:00
2:21 AM,-27.4,-34.6,69,30.17,2.5,ENE,18.4,-,N/A,Snow,Blowing Snow,60,2013-02-21 11:21:00
2:53 AM,-29.0,-36.0,69,30.18,2.5,ENE,16.1,-,N/A,Snow,Blowing Snow,60,2013-02-21 11:53:00
3:53 AM,-29.0,-36.0,69,30.18,2.5,ENE,16.1,-,N/A,Snow,Blowing Snow,60,2013-02-21 12:53:00
4:25 AM,-29.2,-9999,N/A,30.16,2.5,ENE,17.3,-,N/A,Snow,Blowing Snow,60,2013-02-21 13:25:00
4:53 AM,-29.9,-9999,N/A,30.17,2.5,ENE,17.3,-,N/A,Snow,Blowing Snow,60,2013-02-21 13:53:00
5:39 AM,-29.2,-9999,N/A,30.16,2.5,NE,18.4,-,N/A,Snow,Blowing Snow,50,2013-02-21 14:39:00
5:53 AM,-29.9,-9999,N/A,30.17,3.0,NE,18.4,-,N/A,Snow,Blowing Snow,50,2013-02-21 14:53:00
6:53 AM,-29.9,-9999,N/A,30.16,3.0,NE,18.4,-,N/A,Snow,Blowing Snow,50,2013-02-21 15:53:00
7:53 AM,-29.9,-9999,N/A,30.16,3.0,NE,19.6,-,N/A,Snow,Blowing Snow,50,2013-02-21 16:53:00
8:21 AM,-31.0,-9999,N/A,-9999,3.0,NE,19.6,-,N/A,Snow,Blowing Snow,50,2013-02-21 17:21:00
8:46 AM,-31.0,-9999,N/A,30.15,3.0,ENE,19.6,-,N/A,Snow,Blowing Snow,60,2013-02-21 17:46:00
8:53 AM,-31.0,-9999,N/A,30.16,3.0,NE,20.7,-,N/A,Snow,Blowing Snow,50,2013-02-21 17:53:00
9:53 AM,-29.9,-9999,N/A,30.16,3.0,NE,19.6,-,N/A,Snow,Blowing Snow,50,2013-02-21 18:53:00
10:53 AM,-29.9,-9999,N/A,30.14,3.0,ENE,16.1,-,N/A,Snow,Blowing Snow,60,2013-02-21 19:53:00
11:12 AM,-29.2,-36.4,68,30.13,1.2,NE,13.8,-,N/A,Snow,Blowing Snow,50,2013-02-21 20:12:00
11:21 AM,-29.2,-36.4,68,30.13,1.5,NE,15.0,-,N/A,Snow,Blowing Snow,50,2013-02-21 20:21:00
11:49 AM,-29.2,-36.4,68,30.11,1.0,NE,18.4,25.3,N/A,Snow,Blowing Snow,50,2013-02-21 20:49:00
11:53 AM,-29.0,-36.0,69,30.12,0.8,NE,18.4,25.3,N/A,Snow,Blowing Snow,50,2013-02-21 20:53:00
12:53 PM,-27.0,-34.1,69,30.11,0.8,NE,20.7,26.5,N/A,Snow,Blowing Snow,50,2013-02-21 21:53:00
1:53 PM,-27.9,-35.0,69,30.11,0.8,NE,20.7,-,N/A,Snow,Blowing Snow,50,2013-02-21 22:53:00
2:53 PM,-29.0,-35.0,73,30.11,0.8,ENE,25.3,33.4,N/A,Snow,Blowing Snow,60,2013-02-21 23:53:00
3:53 PM,-27.9,-35.0,69,30.10,0.5,ENE,27.6,-,N/A,Snow,Blowing Snow,60,2013-02-22 00:53:00
4:26 PM,-27.4,-34.6,69,30.09,0.5,ENE,26.5,-,N/A,Snow,Blowing Snow,60,2013-02-22 01:26:00
4:53 PM,-27.0,-34.1,69,30.09,0.5,ENE,25.3,-,N/A,Snow,Blowing Snow,60,2013-02-22 01:53:00
5:53 PM,-26.0,-33.0,69,30.09,0.8,ENE,23.0,-,N/A,Snow,Blowing Snow,60,2013-02-22 02:53:00
6:53 PM,-27.0,-33.0,73,30.09,0.8,ENE,25.3,-,N/A,Snow,Blowing Snow,60,2013-02-22 03:53:00
7:53 PM,-27.0,-34.1,69,30.09,1.0,NE,23.0,-,N/A,Snow,Blowing Snow,50,2013-02-22 04:53:00
8:53 PM,-27.0,-34.1,69,30.09,1.0,NE,21.9,-,N/A,Snow,Blowing Snow,50,2013-02-22 05:53:00
9:15 PM,-27.4,-34.6,69,30.07,0.8,ENE,23.0,-,N/A,Snow,Blowing Snow,60,2013-02-22 06:15:00
9:53 PM,-26.0,-33.0,69,30.08,0.8,ENE,25.3,-,N/A,Snow,Blowing Snow,60,2013-02-22 06:53:00
10:53 PM,-27.0,-33.0,73,30.08,1.0,ENE,23.0,-,N/A,Snow,Blowing Snow,60,2013-02-22 07:53:00
11:07 PM,-27.4,-32.8,75,30.07,0.8,ENE,24.2,-,N/A,Snow,Blowing Snow,60,2013-02-22 08:07:00
11:53 PM,-27.0,-34.1,69,30.08,0.8,NE,21.9,-,N/A,Snow,Blowing Snow,50,2013-02-22 08:53:00